Date String (YYYY-MM-DD hh:mm:ss) UTC,Instrument flags,Ambient pressure (hPa),Sample flow (lpm),Bypass flow (lpm),Sample temperature (°C),Ambient temperature (°C),ASC tube jacket temperature (°C),LED temperature (°C),Box temperature (°C),Sample RH (%),Span deviation,Mass concentration (μg/m³),Mass concentration (μg/m³),Mass concentration (μg/m³)
DateTimeUTC,F1_M11,P_M11,Q1_M11,Q2_M11,T1_M11,T2_M11,T3_M11,T4_M11,T5_M11,U1_M11,ZSPAN_M11,X2_M11,X0_M11,X1_M11
2022-04-09 00:00:00,,0825.0,5.00,0.00,28.8,28.2,00.0,37.6,30.6,06.1,0000.0,0002.18,0007.11,0001.24
2022-04-09 00:01:00,,0825.1,5.00,0.00,28.8,28.2,00.0,37.7,30.6,06.1,0000.0,0002.15,0007.04,0001.24
2022-04-09 00:02:00,,0825.1,5.00,0.00,28.9,28.2,00.0,37.7,30.7,06.2,0000.0,0002.16,0007.06,0001.23
2022-04-09 00:03:00,,0825.0,5.00,0.00,28.9,28.2,00.0,37.7,30.7,06.2,0000.0,0002.20,0007.13,0001.20
2022-04-09 00:04:00,,0825.1,5.00,0.00,28.9,28.2,00.0,37.7,30.7,06.3,0000.0,0002.22,0007.12,0001.18
2022-04-09 00:05:00,,0825.0,5.00,0.00,28.9,28.2,00.0,37.7,30.7,06.4,0000.0,0002.23,0007.16,0001.16
2022-04-09 00:06:00,,0825.1,5.00,0.00,28.9,28.3,00.0,37.7,30.7,06.2,0000.0,0002.28,0007.13,0001.16
2022-04-09 00:07:00,,0825.0,5.00,0.00,28.9,28.3,00.0,37.7,30.7,06.3,0000.0,0002.30,0005.66,0001.15
2022-04-09 00:08:00,,0825.0,5.01,0.00,28.9,28.3,00.0,37.7,30.7,06.2,0000.0,0002.31,0005.92,0001.12
2022-04-09 00:09:00,,0824.9,4.99,0.00,28.9,28.3,00.0,37.8,30.7,06.3,0000.0,0002.27,0005.10,0001.10
2022-04-09 00:10:00,,0824.9,5.00,0.00,28.9,28.3,00.0,37.8,30.7,06.3,0000.0,0002.24,0004.80,0001.10
2022-04-09 00:11:00,,0824.9,5.00,0.00,28.9,28.3,00.0,37.8,30.7,06.2,0000.0,0002.20,0004.75,0001.09
2022-04-09 00:12:00,,0824.9,5.00,0.00,28.9,28.3,00.0,37.8,30.7,06.3,0000.0,0002.23,0004.80,0001.10
2022-04-09 00:13:00,,0824.9,5.00,0.00,29.0,28.3,00.0,37.8,30.7,06.3,0000.0,0002.32,0005.18,0001.13
2022-04-09 00:14:00,,0824.9,5.00,0.00,29.0,28.3,00.0,37.8,30.7,06.3,0000.0,0002.36,0005.33,0001.15
2022-04-09 00:15:00,,0824.9,5.01,0.00,28.9,28.2,00.0,37.8,30.7,06.3,0000.0,0002.36,0005.70,0001.16
2022-04-09 00:16:00,,0824.9,5.01,0.00,28.9,28.2,00.0,37.8,30.7,06.4,0000.0,0002.35,0005.92,0001.16
2022-04-09 00:17:00,,0824.9,4.99,0.00,28.9,28.2,00.0,37.8,30.7,06.4,0000.0,0002.32,0005.89,0001.17
2022-04-09 00:18:00,,0824.9,4.99,0.00,29.0,28.3,00.0,37.8,30.7,06.4,0000.0,0002.29,0005.63,0001.18
2022-04-09 00:19:00,,0824.9,5.01,0.00,29.0,28.3,00.0,37.8,30.7,06.4,0000.0,0002.33,0006.58,0001.20
2022-04-09 00:20:00,,0824.9,5.01,0.00,29.0,28.3,00.0,37.8,30.7,06.4,0000.0,0002.38,0006.96,0001.21
2022-04-09 00:21:00,,0824.9,5.00,0.00,29.0,28.3,00.0,37.8,30.8,06.3,0000.0,0002.34,0007.30,0001.20
2022-04-09 00:22:00,,0824.9,4.99,0.00,29.0,28.3,00.0,37.9,30.8,06.3,0000.0,0002.36,0007.42,0001.20
2022-04-09 00:23:00,,0824.8,4.99,0.00,29.0,28.3,00.0,37.9,30.8,06.4,0000.0,0002.38,0007.54,0001.19
2022-04-09 00:24:00,,0824.8,4.99,0.00,29.0,28.3,00.0,37.9,30.8,06.3,0000.0,0002.30,0007.37,0001.18
2022-04-09 00:25:00,,0824.8,4.99,0.00,29.0,28.2,00.0,37.9,30.8,06.2,0000.0,0002.22,0007.15,0001.17
2022-04-09 00:26:00,,0824.9,5.02,0.00,29.0,28.2,00.0,37.9,30.8,06.3,0000.0,0002.28,0006.90,0001.16
2022-04-09 00:27:00,,0824.8,4.99,0.00,29.0,28.2,00.0,37.9,30.7,06.4,0000.0,0002.24,0006.56,0001.16
2022-04-09 00:28:00,,0824.8,5.00,0.00,29.0,28.3,00.0,37.9,30.8,06.4,0000.0,0002.23,0006.47,0001.15
2022-04-09 00:29:00,,0824.8,4.99,0.00,29.0,28.3,00.0,37.9,30.8,06.3,0000.0,0002.35,0006.79,0001.15
2022-04-09 00:30:00,,0824.8,5.01,0.00,29.0,28.3,00.0,37.9,30.8,06.4,0000.0,0002.43,0005.94,0001.16
2022-04-09 00:31:00,,0824.8,4.99,0.00,29.0,28.3,00.0,37.9,30.8,06.3,0000.0,0002.41,0005.65,0001.15
2022-04-09 00:32:00,,0824.8,4.98,0.00,29.0,28.3,00.0,37.9,30.8,06.3,0000.0,0002.52,0005.47,0001.16
2022-04-09 00:33:00,,0824.8,5.01,0.00,29.0,28.3,00.0,37.9,30.7,06.3,0000.0,0002.63,0005.78,0001.17
2022-04-09 00:34:00,,0824.8,5.00,0.00,29.0,28.3,00.0,37.9,30.8,06.4,0000.0,0002.56,0005.50,0001.16
2022-04-09 00:35:00,,0824.7,4.99,0.00,29.0,28.3,00.0,37.9,30.8,06.4,0000.0,0002.58,0005.50,0001.17
2022-04-09 00:36:00,,0824.7,5.00,0.00,29.0,28.3,00.0,37.9,30.7,06.4,0000.0,0002.55,0005.52,0001.17
2022-04-09 00:37:00,,0824.7,5.01,0.00,29.0,28.3,00.0,37.9,30.8,06.4,0000.0,0002.49,0005.70,0001.17
2022-04-09 00:38:00,,0824.7,4.99,0.00,29.0,28.3,00.0,37.9,30.8,06.5,0000.0,0002.56,0005.95,0001.19
2022-04-09 00:39:00,,0824.6,4.99,0.00,29.0,28.3,00.0,37.9,30.8,06.4,0000.0,0002.58,0005.96,0001.20
2022-04-09 00:40:00,,0824.6,5.00,0.00,29.0,28.3,00.0,37.9,30.8,06.4,0000.0,0002.52,0005.87,0001.20
2022-04-09 00:41:00,,0824.7,4.99,0.00,29.0,28.3,00.0,37.9,30.8,06.5,0000.0,0002.52,0007.20,0001.20
2022-04-09 00:42:00,,0824.6,5.00,0.00,29.0,28.4,00.0,37.9,30.8,06.4,0000.0,0002.52,0007.19,0001.21
2022-04-09 00:43:00,,0824.7,5.00,0.00,29.1,28.4,00.0,38.0,30.8,06.5,0000.0,0002.51,0007.23,0001.21
2022-04-09 00:44:00,,0824.6,5.02,0.00,29.1,28.4,00.0,38.0,30.8,06.5,0000.0,0002.42,0007.16,0001.21
2022-04-09 00:45:00,,0824.6,5.00,0.00,29.1,28.4,00.0,38.0,30.8,06.5,0000.0,0002.44,0007.28,0001.22
2022-04-09 00:46:00,,0824.6,4.99,0.00,29.1,28.4,00.0,38.0,30.9,06.5,0000.0,0002.49,0007.44,0001.22
2022-04-09 00:47:00,,0824.6,5.00,0.00,29.1,28.4,00.0,38.0,30.9,06.5,0000.0,0002.52,0007.42,0001.22
2022-04-09 00:48:00,,0824.6,5.00,0.00,29.1,28.4,00.0,38.0,30.8,06.5,0000.0,0002.50,0007.06,0001.23
2022-04-09 00:49:00,,0824.6,5.02,0.00,29.1,28.4,00.0,38.0,30.8,06.4,0000.0,0002.49,0007.27,0001.23
2022-04-09 00:50:00,,0824.6,4.99,0.00,29.1,28.4,00.0,38.0,30.9,06.5,0000.0,0002.48,0007.39,0001.23
2022-04-09 00:51:00,,0824.6,5.00,0.00,29.1,28.4,00.0,38.0,30.9,06.5,0000.0,0002.41,0007.85,0001.24
2022-04-09 00:52:00,,0824.6,5.00,0.00,29.1,28.4,00.0,38.0,30.9,06.5,0000.0,0002.31,0006.76,0001.26
2022-04-09 00:53:00,,0824.6,5.01,0.00,29.1,28.4,00.0,38.0,30.9,06.5,0000.0,0002.36,0006.94,0001.27
2022-04-09 00:54:00,,0824.6,5.00,0.00,29.1,28.4,00.0,38.0,30.9,06.5,0000.0,0002.33,0006.85,0001.27
2022-04-09 00:55:00,,0824.6,5.01,0.00,29.1,28.4,00.0,38.0,30.9,06.6,0000.0,0002.33,0006.51,0001.27
2022-04-09 00:56:00,,0824.6,5.01,0.00,29.1,28.4,00.0,38.0,30.9,06.6,0000.0,0002.31,0006.27,0001.27
2022-04-09 00:57:00,,0824.5,5.00,0.00,29.1,28.4,00.0,38.0,30.9,06.6,0000.0,0002.24,0006.14,0001.26
2022-04-09 00:58:00,,0824.5,5.00,0.00,29.1,28.5,00.0,38.0,30.9,06.6,0000.0,0002.24,0006.25,0001.26
2022-04-09 00:59:00,,0824.6,5.00,0.00,29.2,28.5,00.0,38.0,30.9,06.6,0000.0,0002.27,0006.39,0001.25
